AL3A Weather Reports


Display with metric or nautical units.
time (UTC)temp
F
wind
direction
speed
MPH
gust
MPH
rain 1hr
in
rain 24hr
in
rain mn
in
humidity
%
barometer
mb
20260509160516 70 293 3.0 10.0 0.00 0.00 0.00 19 1027.6
20260509155516 69 293 8.0 14.0 0.00 0.00 0.00 20 1027.7
20260509154516 69 293 4.0 12.0 0.00 0.00 0.00 22 1027.8
20260509153516 69 293 1.0 6.0 0.00 0.00 0.00 24 1028.3
20260509152516 68 270 1.0 4.0 0.00 0.00 0.00 23 1028.0
20260509151536 68 270 1.0 3.0 0.00 0.00 0.00 24 1028.0
20260509150516 67 293 1.0 2.0 0.00 0.00 0.00 26 1028.5
20260509145516 65 0.0 2.0 0.00 0.00 0.00 30 1028.4
20260509144516 64 0.0 3.0 0.00 0.00 0.00 31 1028.3
20260509143536 61 0.0 2.0 0.00 0.00 0.00 32 1027.8
20260509142516 58 0.0 1.0 0.00 0.00 0.00 36 1027.4
20260509141536 53 0.0 1.0 0.00 0.00 0.00 44 1026.1
20260509140516 49 0.0 1.0 0.00 0.00 0.00 46 1026.2
20260509135516 46 0.0 0.0 0.00 0.00 0.00 48 1025.2
20260509134556 42 0.0 0.0 0.00 0.00 0.00 51 1024.1
20260509133516 40 0.0 0.0 0.00 0.00 0.00 51 1024.0
20260509132516 38 0.0 0.0 0.00 0.00 0.00 53 1023.5
20260509131516 37 0.0 0.0 0.00 0.00 0.00 55 1023.5
20260509130516 35 0.0 0.0 0.00 0.00 0.00 58 1023.5
20260509125516 33 0.0 0.0 0.00 0.00 0.00 61 1022.9
20260509124536 31 0.0 1.0 0.00 0.00 0.00 63 1022.5
20260509123516 31 0.0 0.0 0.00 0.00 0.00 62 1021.8
20260509122536 30 0.0 0.0 0.00 0.00 0.00 62 1021.7
20260509121516 30 0.0 0.0 0.00 0.00 0.00 61 1021.6
20260509120556 32 0.0 2.0 0.00 0.00 0.00 57 1021.7
20260509115516 33 0.0 1.0 0.00 0.00 0.00 57 1022.2
20260509114516 33 0.0 1.0 0.00 0.00 0.00 56 1022.2
20260509113516 33 0.0 0.0 0.00 0.00 0.00 56 1022.4
20260509112516 33 0.0 0.0 0.00 0.00 0.00 56 1022.6
20260509111516 33 0.0 0.0 0.00 0.00 0.00 55 1022.7
20260509110516 33 0.0 0.0 0.00 0.00 0.00 55 1022.8
20260509105516 34 0.0 0.0 0.00 0.00 0.00 53 1023.3
20260509104516 34 0.0 1.0 0.00 0.00 0.00 52 1023.3
20260509103515 34 0.0 1.0 0.00 0.00 0.00 52 1023.3
20260509102516 34 0.0 0.0 0.00 0.00 0.00 52 1023.4
20260509101516 35 0.0 0.0 0.00 0.00 0.00 51 1023.4
20260509100515 36 0.0 0.0 0.00 0.00 0.00 49 1024.4
20260509095516 37 0.0 0.0 0.00 0.00 0.00 47 1024.9
20260509094516 36 0.0 0.0 0.00 0.00 0.00 48 1024.5
20260509093515 36 0.0 0.0 0.00 0.00 0.00 48 1024.0
20260509092515 36 0.0 0.0 0.00 0.00 0.00 49 1024.0
20260509091515 36 0.0 2.0 0.00 0.00 0.00 49 1023.4
20260509090516 36 0.0 0.0 0.00 0.00 0.00 47 1023.4
20260509085515 37 0.0 0.0 0.00 0.00 0.00 47 1023.8
20260509084536 38 0.0 0.0 0.00 0.00 0.00 44 1023.7
20260509083516 39 0.0 0.0 0.00 0.00 0.00 41 1024.3
20260509082515 39 0.0 0.0 0.00 0.00 0.00 43 1024.3
20260509081515 40 0.0 0.0 0.00 0.00 0.00 41 1024.8
20260509080517 40 0.0 0.0 0.00 0.00 0.00 40 1024.2
20260509075517 41 0.0 0.0 0.00 0.00 0.00 40 1024.3
20260509074537 41 0.0 0.0 0.00 0.00 0.00 39 1024.8
20260509073537 42 0.0 0.0 0.00 0.00 0.00 38 1024.9
20260509072537 43 0.0 1.0 0.00 0.00 0.00 37 1025.0
20260509071517 44 0.0 0.0 0.00 0.00 0.00 35 1025.5
20260509070517 45 0.0 0.0 0.00 0.00 0.00 33 1025.6
20260509065516 49 0.0 0.0 0.00 0.00 0.00 30 1026.6
20260509064537 51 0.0 2.0 0.00 0.00 0.00 29 1027.0
20260509063516 55 0.0 2.0 0.00 0.00 0.00 24 1027.5
20260509062516 56 0.0 2.0 0.00 0.00 0.00 23 1028.1
20260509061516 57 248 1.0 2.0 0.00 0.00 0.00 22 1028.2
20260509060516 57 225 1.0 2.0 0.00 0.00 0.00 22 1028.2
20260509055536 57 225 1.0 2.0 0.00 0.00 0.00 22 1028.3
20260509054516 57 225 1.0 2.0 0.00 0.00 0.00 22 1028.3
20260509053515 58 225 1.0 2.0 0.00 0.00 0.00 22 1028.5
20260509052515 58 248 1.0 2.0 0.00 0.00 0.00 21 1028.5
20260509051536 57 225 1.0 3.0 0.00 0.00 0.00 21 1028.6
20260509050516 57 225 1.0 2.0 0.00 0.00 0.00 21 1028.2
20260509045515 58 225 1.0 2.0 0.00 0.00 0.00 21 1028.6
20260509044516 59 0.0 1.0 0.00 0.00 0.00 20 1028.6
20260509043515 59 248 1.0 2.0 0.00 0.00 0.00 20 1027.9
20260509042516 59 248 1.0 2.0 0.00 0.00 0.00 20 1028.0
20260509041516 60 248 1.0 2.0 0.00 0.00 0.00 20 1028.3
20260509040535 60 248 1.0 4.0 0.00 0.00 0.00 19 1028.3
20260509035516 60 248 1.0 3.0 0.00 0.00 0.00 19 1028.3
20260509034515 60 248 1.0 3.0 0.00 0.00 0.00 19 1028.1
20260509033516 61 225 1.0 3.0 0.00 0.00 0.00 19 1027.1
20260509032516 61 225 1.0 3.0 0.00 0.00 0.00 19 1027.0
20260509031516 62 248 1.0 3.0 0.00 0.00 0.00 19 1027.0
20260509030515 63 0.0 2.0 0.00 0.00 0.00 18 1024.5
20260509025515 64 0.0 1.0 0.00 0.00 0.00 17 1024.8
20260509024516 65 225 1.0 3.0 0.00 0.00 0.00 17 1024.7
20260509023516 66 225 1.0 2.0 0.00 0.00 0.00 16 1022.9
20260509022515 66 225 1.0 2.0 0.00 0.00 0.00 16 1022.8
20260509021515 67 0.0 2.0 0.00 0.00 0.00 16 1022.9
20260509020515 69 248 1.0 3.0 0.00 0.00 0.00 15 1021.2
20260509015515 70 270 2.0 8.0 0.00 0.00 0.00 14 1021.7
20260509014517 71 293 3.0 9.0 0.00 0.00 0.00 14 1022.1
20260509013517 71 315 8.0 14.0 0.00 0.00 0.00 13 1020.6
20260509012537 72 293 7.0 13.0 0.00 0.00 0.00 13 1021.1
20260509011537 73 315 8.0 12.0 0.00 0.00 0.00 12 1021.1
20260509010517 73 293 8.0 14.0 0.00 0.00 0.00 14 1020.7
20260509005517 74 270 9.0 17.0 0.00 0.00 0.00 13 1020.5
20260509004537 75 270 2.0 12.0 0.00 0.00 0.00 14 1020.5
20260509003517 75 270 4.0 16.0 0.00 0.00 0.00 14 1021.1
20260509002537 74 293 2.0 4.0 0.00 0.00 0.00 15 1021.1
20260509001517 74 293 10.0 17.0 0.00 0.00 0.00 15 1021.2
20260509000537 74 270 5.0 14.0 0.00 0.00 0.00 16 1021.1
20260508235517 73 293 3.0 12.0 0.00 0.00 0.00 18 1020.7
20260508234517 72 293 5.0 11.0 0.00 0.00 0.00 18 1020.8
20260508233537 73 270 5.0 12.0 0.00 0.00 0.00 19 1020.8
20260508232517 75 248 5.0 14.0 0.00 0.00 0.00 18 1021.2
20260508231517 74 270 7.0 15.0 0.00 0.00 0.00 19 1020.9
20260508230517 73 293 10.0 16.0 0.00 0.00 0.00 19 1020.9
20260508225517 73 270 4.0 9.0 0.00 0.00 0.00 19 1020.8
20260508224517 75 270 6.0 14.0 0.00 0.00 0.00 18 1021.4
20260508223537 74 270 1.0 5.0 0.00 0.00 0.00 18 1021.4
20260508222517 74 293 4.0 12.0 0.00 0.00 0.00 18 1021.7
20260508221517 75 248 3.0 10.0 0.00 0.00 0.00 19 1021.7
20260508220517 74 248 6.0 10.0 0.00 0.00 0.00 18 1021.7
20260508215517 77 270 7.0 18.0 0.00 0.00 0.00 17 1022.4
20260508214517 75 293 5.0 18.0 0.00 0.00 0.00 18 1022.1
20260508213517 77 270 7.0 16.0 0.00 0.00 0.00 16 1023.0
20260508212517 76 293 6.0 15.0 0.00 0.00 0.00 16 1022.7
20260508211537 75 293 3.0 16.0 0.00 0.00 0.00 18 1022.9
20260508210517 74 293 1.0 5.0 0.00 0.00 0.00 17 1023.0
20260508205517 74 270 2.0 9.0 0.00 0.00 0.00 17 1023.3
20260508204516 74 293 7.0 13.0 0.00 0.00 0.00 18 1023.4
20260508203537 73 293 3.0 13.0 0.00 0.00 0.00 18 1023.3
20260508202537 73 315 8.0 20.0 0.00 0.00 0.00 18 1023.6
20260508201516 74 270 3.0 14.0 0.00 0.00 0.00 18 1023.5
20260508200517 74 293 8.0 19.0 0.00 0.00 0.00 17 1023.6
20260508195517 73 270 3.0 14.0 0.00 0.00 0.00 19 1023.8
20260508194516 73 293 9.0 17.0 0.00 0.00 0.00 18 1023.8
20260508193537 74 248 7.0 21.0 0.00 0.00 0.00 17 1023.8
20260508192516 74 248 8.0 16.0 0.00 0.00 0.00 18 1023.7
20260508191537 73 225 2.0 8.0 0.00 0.00 0.00 19 1023.9
20260508190516 72 293 4.0 19.0 0.00 0.00 0.00 20 1024.6
20260508185516 72 270 4.0 11.0 0.00 0.00 0.00 20 1024.7
20260508184516 71 23 2.0 4.0 0.00 0.00 0.00 20 1024.3
20260508183516 71 23 4.0 12.0 0.00 0.00 0.00 21 1025.0
20260508182516 71 270 8.0 17.0 0.00 0.00 0.00 19 1025.0
20260508181516 70 293 2.0 12.0 0.00 0.00 0.00 21 1024.8
20260508180536 71 293 6.0 18.0 0.00 0.00 0.00 21 1025.5
20260508175536 71 248 2.0 8.0 0.00 0.00 0.00 21 1025.7
20260508174516 70 270 1.0 7.0 0.00 0.00 0.00 22 1025.4
20260508173516 70 270 2.0 9.0 0.00 0.00 0.00 22 1026.0
20260508172517 69 270 3.0 9.0 0.00 0.00 0.00 22 1025.8
20260508171516 69 293 3.0 13.0 0.00 0.00 0.00 24 1026.1
20260508170536 69 0 3.0 10.0 0.00 0.00 0.00 23 1026.6
20260508165516 68 293 1.0 3.0 0.00 0.00 0.00 23 1026.7
20260508164516 68 293 3.0 11.0 0.00 0.00 0.00 24 1026.9
20260508163516 68 293 2.0 8.0 0.00 0.00 0.00 24 1027.4
20260508162516 67 270 8.0 15.0 0.00 0.00 0.00 23 1027.5
20260508161536 66 293 3.0 12.0 0.00 0.00 0.00 23 1027.1